Lawrence, KS

10:31 PM CDT on September 22, 2017 (GMT -0500)
Lawrence Municipal

Weather History for KLWC - January, 2013

Change the Weather History Date:

Monday, January 14, 2013

  Actual Average Record
Temperature  
Mean Temperature 20 °F 29 °F  
Max Temperature 34 °F 40 °F 58 °F (2016)
Min Temperature 5 °F 18 °F 5 °F (2005)
Degree Days  
Heating Degree Days 45 36  
Month to date heating degree days 471 504  
Since 1 July heating degree days 2411 2547  
Cooling Degree Days 0 0  
Month to date cooling degree days 0 0  
Year to date cooling degree days 0 0  
Moisture  
Dew Point 8 °F    
Average Humidity 58    
Maximum Humidity 84    
Minimum Humidity 32    
Precipitation  
Precipitation 0.00 in 0.03 in 0.25 in (2007)
Month to date precipitation 0.53 0.38  
Year to date precipitation 0.53 0.38  
Sea Level Pressure  
Sea Level Pressure 30.47 in    
Wind  
Wind Speed 3 mph (NNE)    
Max Wind Speed 10 mph    
Max Gust Speed 16 mph    
Visibility 10 miles    
Events      
T = Trace of Precipitation, MM = Missing Value Source: NWS Daily Summary

Daily Weather History Graph

Daily Weather History Graph

Search for Another Location

Airport or City:

Trip Planner

Search our weather history database for the weather conditions in past years. The results will help you decide how hot, cold, wet, or windy it might be!

Date:

Astronomy

Jan. 14, 2013 Rise Set
Actual Time 7:38 AM CST 5:22 PM CST
Civil Twilight 7:09 AM CST 5:51 PM CST
Nautical Twilight 6:36 AM CST 6:24 PM CST
Astronomical Twilight 6:04 AM CST 6:56 PM CST
Moon 9:14 AM CST (1/14) 9:06 PM CST (1/14)
Length of Visible Light 10h 42m
Length of Day
9h 43m
Waxing Crescent, 11% of the Moon is Illuminated
Jan 14
Waxing Crescent
Jan 18
First Quarter
Jan 26
Full
Feb 3
Last Quarter
Feb 10
New

Hourly Weather History & Observations

Time (CST) Temp. Windchill Dew Point Humidity Pressure Visibility Wind Dir Wind Speed Gust Speed Precip Events Conditions
12:52 AM 12.0 °F - 5.0 °F 73% 30.44 in 10.0 mi Calm Calm - N/A   Clear
1:52 AM 9.0 °F - 3.9 °F 80% 30.47 in 10.0 mi Calm Calm - N/A   Clear
3:52 AM 6.1 °F - 1.9 °F 83% 30.48 in 10.0 mi Calm Calm - N/A   Clear
4:52 AM 6.1 °F - 1.0 °F 80% 30.48 in 10.0 mi Calm Calm - N/A   Clear
6:52 AM 7.0 °F -1.7 °F 1.9 °F 80% 30.50 in 10.0 mi NW 4.6 mph - N/A   Clear
7:52 AM 6.1 °F - 1.9 °F 83% 30.53 in 10.0 mi Calm Calm - N/A   Clear
8:52 AM 12.9 °F - 9.0 °F 84% 30.56 in 10.0 mi Calm Calm - N/A   Clear
9:52 AM 17.1 °F 8.7 °F 10.9 °F 77% 30.57 in 10.0 mi NW 5.8 mph - N/A   Clear
10:52 AM 21.9 °F 14.5 °F 14.0 °F 72% 30.53 in 10.0 mi NNW 5.8 mph - N/A   Clear
11:52 AM 27.0 °F 18.7 °F 10.9 °F 51% 30.48 in 10.0 mi NW 8.1 mph - N/A   Clear
12:52 PM 30.0 °F 23.2 °F 8.1 °F 40% 30.45 in 10.0 mi NW 6.9 mph - N/A   Clear
2:52 PM 33.1 °F 30.0 °F 6.1 °F 32% 30.43 in 10.0 mi Variable 3.5 mph - N/A   Clear
3:52 PM 32.0 °F 26.4 °F 8.1 °F 37% 30.43 in 10.0 mi ENE 5.8 mph - N/A   Clear
4:52 PM 30.0 °F 23.2 °F 10.9 °F 45% 30.43 in 10.0 mi ESE 6.9 mph - N/A   Clear
5:52 PM 25.0 °F 20.7 °F 10.9 °F 55% 30.43 in 10.0 mi East 3.5 mph - N/A   Clear
6:52 PM 21.0 °F 16.2 °F 9.0 °F 60% 30.45 in 10.0 mi ENE 3.5 mph - N/A   Clear
7:52 PM 21.0 °F 16.2 °F 14.0 °F 74% 30.46 in 10.0 mi SE 3.5 mph - N/A   Clear
8:52 PM 19.0 °F 13.9 °F 12.9 °F 77% 30.45 in 9.0 mi SE 3.5 mph - N/A   Clear
9:52 PM 16.0 °F - 10.0 °F 77% 30.46 in 10.0 mi Calm Calm - N/A   Clear
10:52 PM 12.9 °F - 9.0 °F 84% 30.45 in 9.0 mi Calm Calm - N/A   Clear
11:52 PM 14.0 °F 8.2 °F 9.0 °F 80% 30.45 in 10.0 mi NNW 3.5 mph - N/A   Mostly Cloudy